Date String (YYYY-MM-DD hh:mm:ss) UTC,Instrument flags,Ambient pressure (hPa),Sample flow (lpm),Bypass flow (lpm),Sample temperature (°C),Ambient temperature (°C),ASC tube jacket temperature (°C),LED temperature (°C),Box temperature (°C),Sample RH (%),Span deviation,Mass concentration (μg/m³),Mass concentration (μg/m³),Mass concentration (μg/m³)
DateTimeUTC,F1_M11,P_M11,Q1_M11,Q2_M11,T1_M11,T2_M11,T3_M11,T4_M11,T5_M11,U1_M11,ZSPAN_M11,X0_M11,X2_M11,X1_M11
2023-02-25 03:00:00,,0826.5,4.98,0.00,21.9,22.6,00.0,30.6,23.9,08.1,0000.0,0001.52,0000.87,0000.67
2023-02-25 03:01:00,,0826.5,5.05,0.00,22.0,22.3,00.0,30.7,23.9,08.2,0000.0,0001.52,0000.92,0000.70
2023-02-25 03:02:00,,0826.5,5.00,0.00,22.0,21.7,00.0,30.7,23.8,08.4,0000.0,0001.53,0000.94,0000.73
2023-02-25 03:03:00,,0826.5,4.99,0.00,21.9,21.1,00.0,30.7,23.6,08.4,0000.0,0001.45,0000.96,0000.77
2023-02-25 03:04:00,,0826.5,4.99,0.00,21.9,20.6,00.0,30.7,23.4,08.4,0000.0,0001.45,0000.99,0000.81
2023-02-25 03:05:00,,0826.5,5.01,0.00,21.8,20.2,00.0,30.7,23.3,08.2,0000.0,0001.54,0001.04,0000.85
2023-02-25 03:06:00,,0826.5,5.00,0.00,21.7,20.0,00.0,30.6,23.2,08.1,0000.0,0001.52,0001.07,0000.87
2023-02-25 03:07:00,,0826.5,5.00,0.00,21.7,19.8,00.0,30.6,23.2,08.0,0000.0,0001.70,0001.12,0000.89
2023-02-25 03:08:00,,0826.5,5.01,0.00,21.6,19.7,00.0,30.6,23.1,08.2,0000.0,0001.73,0001.14,0000.91
2023-02-25 03:09:00,,0826.5,5.00,0.00,21.6,19.5,00.0,30.5,23.0,08.1,0000.0,0001.71,0001.14,0000.94
2023-02-25 03:10:00,,0826.5,5.00,0.00,21.5,19.8,00.0,30.5,23.0,07.8,0000.0,0001.85,0001.15,0000.94
2023-02-25 03:11:00,,0826.5,5.06,0.00,21.6,21.1,00.0,30.5,23.3,08.2,0000.0,0001.83,0001.15,0000.94
2023-02-25 03:12:00,,0826.5,4.96,0.00,21.8,22.2,00.0,30.5,23.7,08.2,0000.0,0001.80,0001.15,0000.94
2023-02-25 03:13:00,,0826.5,4.97,0.00,21.9,22.1,00.0,30.5,23.7,07.9,0000.0,0001.76,0001.13,0000.91
2023-02-25 03:14:00,,0826.5,4.99,0.00,21.8,21.4,00.0,30.6,23.5,07.7,0000.0,0001.75,0001.12,0000.89
2023-02-25 03:15:00,,0826.5,5.01,0.00,21.8,20.8,00.0,30.6,23.3,07.9,0000.0,0001.79,0001.12,0000.88
2023-02-25 03:16:00,,0826.6,5.01,0.00,21.7,20.3,00.0,30.6,23.2,07.9,0000.0,0001.99,0001.19,0000.89
2023-02-25 03:17:00,,0826.7,5.00,0.00,21.6,19.9,00.0,30.5,23.0,08.0,0000.0,0002.07,0001.22,0000.90
2023-02-25 03:18:00,,0826.7,5.00,0.00,21.5,19.6,00.0,30.5,22.9,07.9,0000.0,0001.90,0001.19,0000.90
2023-02-25 03:19:00,,0826.7,5.00,0.00,21.4,19.5,00.0,30.5,22.8,08.1,0000.0,0001.89,0001.20,0000.92
2023-02-25 03:20:00,,0826.7,5.00,0.00,21.4,19.3,00.0,30.4,22.8,08.0,0000.0,0001.89,0001.21,0000.92
2023-02-25 03:21:00,,0826.7,5.01,0.00,21.4,20.1,00.0,30.4,23.0,08.0,0000.0,0001.88,0001.21,0000.93
2023-02-25 03:22:00,,0826.7,4.95,0.00,21.5,21.5,00.0,30.4,23.3,08.0,0000.0,0002.00,0001.22,0000.94
2023-02-25 03:23:00,,0826.6,5.00,0.00,21.7,22.4,00.0,30.4,23.6,07.9,0000.0,0001.92,0001.17,0000.92
2023-02-25 03:24:00,,0826.7,4.95,0.00,21.8,22.1,00.0,30.4,23.6,07.8,0000.0,0001.97,0001.15,0000.92
2023-02-25 03:25:00,,0826.7,5.01,0.00,21.8,21.5,00.0,30.5,23.5,07.7,0000.0,0002.04,0001.17,0000.92
2023-02-25 03:26:00,,0826.7,5.01,0.00,21.7,20.9,00.0,30.5,23.3,07.7,0000.0,0001.99,0001.12,0000.91
2023-02-25 03:27:00,,0826.7,5.01,0.00,21.7,20.5,00.0,30.5,23.2,07.8,0000.0,0001.81,0001.04,0000.89
2023-02-25 03:28:00,,0826.9,5.00,0.00,21.6,20.1,00.0,30.4,23.0,07.7,0000.0,0001.68,0000.98,0000.88
2023-02-25 03:29:00,,0826.7,5.00,0.00,21.5,19.8,00.0,30.4,22.9,07.8,0000.0,0001.78,0001.02,0000.87
2023-02-25 03:30:00,,0826.8,5.01,0.00,21.5,19.6,00.0,30.4,22.8,07.8,0000.0,0002.49,0001.01,0000.85
2023-02-25 03:31:00,,0826.8,4.99,0.00,21.4,19.5,00.0,30.4,22.8,07.8,0000.0,0002.83,0001.00,0000.84
2023-02-25 03:32:00,,0826.8,5.01,0.00,21.4,19.4,00.0,30.4,22.8,07.7,0000.0,0002.77,0001.01,0000.83
2023-02-25 03:33:00,,0826.8,5.00,0.00,21.4,20.5,00.0,30.3,23.1,07.7,0000.0,0002.69,0001.02,0000.82
2023-02-25 03:34:00,,0826.8,4.93,0.00,21.6,21.8,00.0,30.3,23.4,07.7,0000.0,0002.72,0001.03,0000.82
2023-02-25 03:35:00,,0826.8,5.04,0.00,21.7,22.4,00.0,30.4,23.6,07.7,0000.0,0002.69,0001.06,0000.82
2023-02-25 03:36:00,,0826.7,5.00,0.00,21.7,21.8,00.0,30.4,23.5,07.6,0000.0,0002.64,0001.06,0000.83
2023-02-25 03:37:00,,0826.8,4.97,0.00,21.7,21.2,00.0,30.4,23.3,07.6,0000.0,0002.69,0001.08,0000.84
2023-02-25 03:38:00,,0826.8,4.98,0.00,21.6,20.7,00.0,30.4,23.2,07.7,0000.0,0002.73,0001.11,0000.86
2023-02-25 03:39:00,,0826.8,5.00,0.00,21.6,20.3,00.0,30.4,23.1,07.7,0000.0,0002.73,0001.13,0000.89
2023-02-25 03:40:00,,0826.9,5.00,0.00,21.6,20.0,00.0,30.4,23.0,07.9,0000.0,0002.66,0001.14,0000.94
2023-02-25 03:41:00,,0826.8,5.00,0.00,21.5,19.8,00.0,30.4,23.0,07.8,0000.0,0001.93,0001.16,0000.98
2023-02-25 03:42:00,,0827.0,5.02,0.00,21.4,19.5,00.0,30.4,22.9,07.8,0000.0,0001.68,0001.19,0001.02
2023-02-25 03:43:00,,0826.9,5.00,0.00,21.4,19.4,00.0,30.3,22.8,07.9,0000.0,0002.28,0001.24,0001.08
2023-02-25 03:44:00,,0826.9,5.00,0.00,21.3,19.5,00.0,30.3,22.8,08.0,0000.0,0002.39,0001.34,0001.17
2023-02-25 03:45:00,,0826.9,5.03,0.00,21.4,20.8,00.0,30.3,23.1,08.0,0000.0,0002.51,0001.43,0001.27
2023-02-25 03:46:00,,0826.9,5.07,0.00,21.5,22.0,00.0,30.3,23.4,07.9,0000.0,0002.66,0001.51,0001.36
2023-02-25 03:47:00,,0827.0,4.97,0.00,21.7,22.1,00.0,30.3,23.5,07.9,0000.0,0004.14,0001.60,0001.43
2023-02-25 03:48:00,,0826.9,4.98,0.00,21.7,21.4,00.0,30.4,23.4,08.0,0000.0,0004.39,0001.79,0001.57
2023-02-25 03:49:00,,0826.9,4.98,0.00,21.6,20.8,00.0,30.4,23.2,08.1,0000.0,0004.57,0001.95,0001.69
2023-02-25 03:50:00,,0826.8,5.01,0.00,21.6,20.4,00.0,30.4,23.1,08.2,0000.0,0006.03,0002.12,0001.84
2023-02-25 03:51:00,,0826.9,5.02,0.00,21.5,20.1,00.0,30.4,23.0,08.2,0000.0,0006.49,0002.26,0001.95
2023-02-25 03:52:00,,0826.9,5.00,0.00,21.5,19.8,00.0,30.4,23.0,08.1,0000.0,0006.72,0002.37,0002.04
2023-02-25 03:53:00,,0826.8,5.01,0.00,21.5,19.6,00.0,30.3,23.0,08.0,0000.0,0007.52,0002.51,0002.14
2023-02-25 03:54:00,,0826.8,4.99,0.00,21.4,19.5,00.0,30.3,22.9,08.2,0000.0,0007.33,0002.63,0002.25
2023-02-25 03:55:00,,0827.1,5.01,0.00,21.4,19.4,00.0,30.3,22.9,08.3,0000.0,0007.47,0002.79,0002.39
2023-02-25 03:56:00,,0827.0,5.02,0.00,21.4,19.5,00.0,30.3,22.9,08.3,0000.0,0007.60,0002.94,0002.53
2023-02-25 03:57:00,,0826.8,5.00,0.00,21.4,20.7,00.0,30.3,23.1,08.3,0000.0,0007.75,0003.10,0002.69
2023-02-25 03:58:00,,0826.9,5.07,0.00,21.6,22.0,00.0,30.3,23.5,08.4,0000.0,0007.29,0003.24,0002.89
2023-02-25 03:59:00,,0826.9,5.02,0.00,21.7,22.5,00.0,30.3,23.7,08.4,0000.0,0007.28,0003.32,0003.07
